This is the latest recevied weather packets stored in our database for station/object K4KMJ. If no packets are shown the sender has not sent any weather packets the latest 10 day(s).
| Time | Temp. | Humidity | Pressure | Rain* | Wind** | Luminosity | Snow |
|---|---|---|---|---|---|---|---|
| 1788177095 | 25.56° C | 99% | 1019.1 hPa | 0 mm | - | 51 W/m² | - |
| 1788176778 | 25.56° C | 99% | 1018.9 hPa | 0.51 mm | - | 44 W/m² | - |
| 1788176473 | 25° C | 99% | 1018.9 hPa | 0.51 mm | - | 38 W/m² | - |
| 1788176172 | 24.44° C | 99% | 1018.8 hPa | 0 mm | - | 32 W/m² | - |
| 1788175868 | 23.89° C | 99% | 1019 hPa | 0 mm | - | 25 W/m² | - |
| 1788175567 | 23.89° C | 99% | 1018.6 hPa | 0 mm | - | 16 W/m² | - |
| 1788175262 | 23.89° C | 99% | 1018.6 hPa | 0 mm | - | 12 W/m² | - |
| 1788174958 | 23.33° C | 99% | 1018.4 hPa | 0 mm | - | 9 W/m² | - |
| 1788174653 | 23.33° C | 99% | 1018.6 hPa | 0 mm | - | 6 W/m² | - |
| 1788174348 | 23.33° C | 99% | 1018.3 hPa | 0 mm | - | 3 W/m² | - |
| 1788174062 | 23.33° C | 99% | 1018.3 hPa | 0 mm | - | 2 W/m² | - |
| 1788173743 | 23.33° C | 99% | 1018.1 hPa | 0 mm | - | 1 W/m² | - |
| 1788173438 | 23.33° C | 99% | 1018.2 hPa | 0 mm | - | 0 W/m² | - |
| 1788173134 | 23.33° C | 99% | 1018.2 hPa | 0 mm | - | 0 W/m² | - |
| 1788172830 | 23.33° C | 99% | 1018 hPa | 0 mm | - | 0 W/m² | - |
| 1788172525 | 23.33° C | 99% | 1018 hPa | 0 mm | - | 0 W/m² | - |
| 1788172221 | 23.33° C | 99% | 1018.2 hPa | 0 mm | - | 0 W/m² | - |
| 1788171914 | 23.33° C | 99% | 1018 hPa | 0 mm | - | 0 W/m² | - |
| 1788171610 | 23.33° C | 99% | 1018.1 hPa | 0 mm | - | 0 W/m² | - |
| 1788171304 | 23.33° C | 99% | 1018 hPa | 0 mm | - | 0 W/m² | - |
| 1788171001 | 23.33° C | 99% | 1018 hPa | 0 mm | - | 0 W/m² | - |
| 1788170697 | 23.33° C | 99% | 1017.9 hPa | 0 mm | - | 0 W/m² | - |
| 1788170392 | 23.89° C | 99% | 1018.1 hPa | 0 mm | - | 0 W/m² | - |
| 1788170091 | 23.89° C | 99% | 1018.1 hPa | 0 mm | - | 0 W/m² | - |
| 1788169786 | 23.89° C | 99% | 1018.2 hPa | 0 mm | - | 0 W/m² | - |
* Rain latest hour (hover to see other rain measurements)
** Current wind speed in m/s (hover to see current wind gust speed)